Hourly Weather Jaunde

Today, 13 August, Thursday

Time Temperature Precipitation Wind Pressure Humidity
00:00 +22°C° 0 mm 1 mps 699 mmHg 94%
01:00 +21°C° 0 mm 2 mps 698 mmHg 93%
02:00 +21°C° 0 mm 2 mps 698 mmHg 92%
03:00 +22°C° 0 mm 1 mps 698 mmHg 92%
04:00 +22°C° 0 mm 1 mps 698 mmHg 91%
05:00 +22°C° 0 mm 1 mps 698 mmHg 91%
06:00 +22°C° 0 mm 1 mps 698 mmHg 91%
07:00 +22°C° 0 mm 1 mps 698 mmHg 91%
08:00 +23°C° 0 mm 1 mps 699 mmHg 85%
09:00 +24°C° 0 mm 1 mps 699 mmHg 80%
10:00 +26°C° 0 mm 1 mps 700 mmHg 74%
11:00 +27°C° 0.1 mm 2 mps 699 mmHg 69%
12:00 +28°C° 0.1 mm 2 mps 698 mmHg 64%
13:00 +30°C° 0.1 mm 2 mps 698 mmHg 60%
14:00 +29°C° 1.3 mm 2 mps 697 mmHg 68%
15:00 +28°C° 1.3 mm 2 mps 696 mmHg 77%
16:00 +27°C° 1.3 mm 2 mps 696 mmHg 85%
17:00 +25°C° 0.9 mm 2 mps 696 mmHg 89%
18:00 +24°C° 0.9 mm 2 mps 696 mmHg 92%
19:00 +23°C° 0.9 mm 2 mps 697 mmHg 96%
20:00 +21°C° 0.1 mm 2 mps 697 mmHg 96%
21:00 +21°C° 0.1 mm 2 mps 698 mmHg 96%
22:00 +21°C° 0.1 mm 2 mps 698 mmHg 97%
23:00 +21°C° 0 mm 2 mps 698 mmHg 96%

Tomorrow, 14 August, Friday

Time Temperature Precipitation Wind Pressure Humidity
00:00 +21°C° 0 mm 2 mps 698 mmHg 96%
01:00 +21°C° 0 mm 2 mps 697 mmHg 95%
02:00 +21°C° 0 mm 2 mps 697 mmHg 95%
03:00 +22°C° 0 mm 1 mps 697 mmHg 95%
04:00 +22°C° 0 mm 1 mps 697 mmHg 95%
05:00 +22°C° 0 mm 1 mps 697 mmHg 95%
06:00 +22°C° 0 mm 1 mps 697 mmHg 94%
07:00 +22°C° 0 mm 1 mps 697 mmHg 94%
08:00 +23°C° 0.1 mm 2 mps 698 mmHg 87%
09:00 +25°C° 0.1 mm 2 mps 698 mmHg 81%
10:00 +26°C° 0.1 mm 2 mps 698 mmHg 75%
11:00 +27°C° 0.6 mm 2 mps 698 mmHg 75%
12:00 +27°C° 0.6 mm 2 mps 697 mmHg 75%
13:00 +28°C° 0.6 mm 2 mps 696 mmHg 76%
14:00 +27°C° 1 mm 2 mps 696 mmHg 78%
15:00 +27°C° 1 mm 2 mps 695 mmHg 80%
16:00 +27°C° 1 mm 2 mps 695 mmHg 82%
17:00 +25°C° 0.2 mm 2 mps 695 mmHg 86%
18:00 +24°C° 0.2 mm 2 mps 696 mmHg 90%
19:00 +23°C° 0.2 mm 2 mps 696 mmHg 94%
20:00 +23°C° 0 mm 2 mps 696 mmHg 94%
21:00 +21°C° 0 mm 2 mps 697 mmHg 94%
22:00 +21°C° 0 mm 2 mps 697 mmHg 94%
23:00 +21°C° 0 mm 2 mps 697 mmHg 93%

Day after tomorrow, 15 August, Saturday

Time Temperature Precipitation Wind Pressure Humidity
00:00 +21°C° 0 mm 2 mps 697 mmHg 93%
01:00 +21°C° 0 mm 2 mps 697 mmHg 92%
02:00 +21°C° 0 mm 2 mps 697 mmHg 92%
03:00 +21°C° 0 mm 2 mps 697 mmHg 92%
04:00 +21°C° 0 mm 2 mps 696 mmHg 91%
05:00 +21°C° 0 mm 2 mps 697 mmHg 91%
06:00 +21°C° 0 mm 2 mps 697 mmHg 90%
07:00 +21°C° 0 mm 2 mps 697 mmHg 90%
08:00 +23°C° 0.1 mm 2 mps 698 mmHg 88%
09:00 +23°C° 0.1 mm 2 mps 698 mmHg 86%
10:00 +24°C° 0.1 mm 2 mps 698 mmHg 84%
11:00 +26°C° 0.1 mm 2 mps 698 mmHg 76%
12:00 +27°C° 0.1 mm 2 mps 698 mmHg 68%
13:00 +29°C° 0.1 mm 3 mps 698 mmHg 60%
14:00 +29°C° 0.3 mm 3 mps 697 mmHg 64%
15:00 +28°C° 0.3 mm 3 mps 696 mmHg 67%
16:00 +27°C° 0.3 mm 3 mps 695 mmHg 70%
17:00 +26°C° 0.1 mm 2 mps 695 mmHg 77%
18:00 +24°C° 0.1 mm 2 mps 696 mmHg 84%
19:00 +22°C° 0.1 mm 1 mps 696 mmHg 91%
20:00 +21°C° 0 mm 2 mps 696 mmHg 91%
21:00 +21°C° 0 mm 2 mps 697 mmHg 92%
22:00 +21°C° 0 mm 2 mps 697 mmHg 92%
23:00 +21°C° 0 mm 2 mps 697 mmHg 92%

16 August, Sunday

Time Temperature Precipitation Wind Pressure Humidity
00:00 +21°C° 0 mm 2 mps 697 mmHg 92%
01:00 +21°C° 0 mm 2 mps 697 mmHg 92%
02:00 +21°C° 0 mm 2 mps 696 mmHg 91%
03:00 +21°C° 0 mm 2 mps 696 mmHg 91%
04:00 +22°C° 0 mm 1 mps 696 mmHg 91%
05:00 +22°C° 0 mm 1 mps 696 mmHg 91%
06:00 +22°C° 0 mm 1 mps 697 mmHg 91%
07:00 +22°C° 0 mm 1 mps 697 mmHg 91%
08:00 +23°C° 0 mm 2 mps 697 mmHg 86%
09:00 +24°C° 0 mm 2 mps 698 mmHg 80%
10:00 +25°C° 0 mm 2 mps 698 mmHg 75%
11:00 +27°C° 0.1 mm 2 mps 698 mmHg 70%
12:00 +28°C° 0.1 mm 2 mps 697 mmHg 65%
13:00 +29°C° 0.1 mm 2 mps 697 mmHg 60%
14:00 +29°C° 0.3 mm 2 mps 696 mmHg 63%
15:00 +29°C° 0.3 mm 2 mps 696 mmHg 65%
16:00 +28°C° 0.3 mm 2 mps 695 mmHg 68%
17:00 +26°C° 0.3 mm 2 mps 695 mmHg 76%
18:00 +25°C° 0.3 mm 2 mps 696 mmHg 84%
19:00 +23°C° 0.3 mm 1 mps 696 mmHg 92%
20:00 +23°C° 0 mm 2 mps 696 mmHg 92%
21:00 +21°C° 0 mm 2 mps 697 mmHg 93%
22:00 +21°C° 0 mm 2 mps 697 mmHg 93%
23:00 +21°C° 0 mm 2 mps 697 mmHg 93%

17 August, Monday

Time Temperature Precipitation Wind Pressure Humidity
00:00 +22°C° 0 mm 1 mps 697 mmHg 94%
01:00 +21°C° 0 mm 1 mps 697 mmHg 94%
02:00 +22°C° 0 mm 1 mps 697 mmHg 93%
03:00 +22°C° 0 mm 1 mps 697 mmHg 93%
04:00 +22°C° 0 mm 1 mps 696 mmHg 92%
05:00 +22°C° 0 mm 1 mps 697 mmHg 93%
06:00 +22°C° 0 mm 1 mps 697 mmHg 93%
07:00 +22°C° 0 mm 1 mps 697 mmHg 93%
08:00 +23°C° 0 mm 1 mps 697 mmHg 89%
09:00 +24°C° 0 mm 1 mps 698 mmHg 85%
10:00 +25°C° 0 mm 2 mps 698 mmHg 80%
11:00 +26°C° 0.4 mm 2 mps 697 mmHg 77%
12:00 +27°C° 0.4 mm 2 mps 697 mmHg 74%
13:00 +28°C° 0.4 mm 2 mps 696 mmHg 71%
14:00 +27°C° 1.1 mm 2 mps 696 mmHg 75%
15:00 +27°C° 1.1 mm 2 mps 695 mmHg 79%
16:00 +26°C° 1.1 mm 2 mps 695 mmHg 83%
17:00 +25°C° 0.3 mm 2 mps 695 mmHg 87%
18:00 +24°C° 0.3 mm 2 mps 696 mmHg 91%
19:00 +23°C° 0.3 mm 2 mps 696 mmHg 94%
20:00 +21°C° 0 mm 2 mps 696 mmHg 94%
21:00 +22°C° 0 mm 1 mps 697 mmHg 94%
22:00 +22°C° 0 mm 1 mps 697 mmHg 94%
23:00 +22°C° 0 mm 1 mps 697 mmHg 94%

18 August, Tuesday

Time Temperature Precipitation Wind Pressure Humidity
00:00 +22°C° 0 mm 1 mps 697 mmHg 94%
01:00 +22°C° 0 mm 1 mps 697 mmHg 94%
02:00 +22°C° 0 mm 1 mps 697 mmHg 94%
03:00 +22°C° 0 mm 1 mps 696 mmHg 94%
04:00 +22°C° 0 mm 1 mps 696 mmHg 94%
05:00 +22°C° 0 mm 1 mps 697 mmHg 93%
06:00 +22°C° 0 mm 1 mps 697 mmHg 93%
07:00 +22°C° 0 mm 1 mps 697 mmHg 93%
08:00 +23°C° 0 mm 1 mps 698 mmHg 88%
09:00 +24°C° 0 mm 1 mps 698 mmHg 84%
10:00 +25°C° 0 mm 2 mps 698 mmHg 80%
11:00 +26°C° 0.1 mm 2 mps 698 mmHg 75%
12:00 +27°C° 0.1 mm 2 mps 697 mmHg 71%
13:00 +28°C° 0.1 mm 2 mps 697 mmHg 67%
14:00 +28°C° 0.2 mm 2 mps 696 mmHg 69%
15:00 +28°C° 0.2 mm 2 mps 695 mmHg 71%
16:00 +28°C° 0.2 mm 2 mps 695 mmHg 73%
17:00 +26°C° 0.4 mm 2 mps 695 mmHg 80%
18:00 +24°C° 0.4 mm 2 mps 695 mmHg 87%
19:00 +23°C° 0.4 mm 1 mps 695 mmHg 94%
20:00 +22°C° 0 mm 1 mps 696 mmHg 94%
21:00 +22°C° 0 mm 1 mps 696 mmHg 94%
22:00 +22°C° 0 mm 1 mps 697 mmHg 94%
23:00 +22°C° 0 mm 1 mps 696 mmHg 94%
Show more